Wind_Speed
24 22 24 26 27 28 27 27 26 25 25 24 22 22 24 26 27 27 27 28 29 29 29 29 29 30 30 30 30 29 30 29 29 29 29 29 29 28 28 28 28 29 29 29 28 28 28 28 29 28 27 29 29 29 29 29 29 30 30 31 32 32 33 32 36 44 43 36 35 37 33 32 34 34 34 35 35 35 36 36 36 35 35 35 34
24 23 24 25 26 27 28 27 27 26 25 24 22 21 22 24 26 27 29 30 30 30 30 30 30 31 31 31 30 30 30 29 29 28 28 29 29 29 29 29 30 30 30 30 30 29 29 30 30 30 28 29 30 29 30 30 29 30 31 31 32 31 29 30 33 39 43 39 36 37 34 31 33 34 33 35 35 33 34 35 35 35 34 33 31
24 23 23 25 26 27 27 26 26 26 25 24 23 22 22 24 25 27 29 30 30 30 30 30 31 31 31 31 31 31 30 30 29 28 29 30 30 30 30 29 30 30 31 31 31 30 30 31 31 30 30 30 31 30 30 30 29 29 30 28 30 31 28 28 30 35 40 40 37 38 36 32 33 33 31 32 33 32 33 34 33 34 34 32 32
25 23 23 25 26 27 27 26 25 24 24 23 23 23 24 25 26 28 29 30 30 30 30 30 31 31 31 31 31 31 31 30 30 30 30 30 31 31 30 30 30 31 31 32 31 30 31 32 32 31 31 32 32 31 29 28 27 26 27 26 26 28 27 26 29 31 35 39 38 37 35 34 34 34 32 32 33 33 35 35 33 34 34 34 34
26 24 23 24 26 27 28 26 25 24 23 23 24 25 25 25 26 28 30 31 31 31 32 31 31 32 32 32 31 31 31 31 31 32 32 31 31 31 31 31 31 31 32 32 32 32 32 33 33 32 31 32 31 30 28 27 25 24 25 25 25 26 26 25 26 27 30 35 37 36 34 34 35 35 34 35 36 37 36 36 34 34 33 33 34
26 25 24 24 26 27 27 26 25 24 24 25 26 27 26 25 26 28 30 32 32 32 32 31 32 32 32 33 33 32 32 31 32 33 33 32 31 31 31 31 32 31 32 32 31 32 32 32 32 31 30 31 30 29 27 26 25 25 25 26 25 26 27 27 26 26 28 31 34 34 33 32 32 32 31 30 32 35 36 37 36 35 35 35 35
26 25 25 25 26 26 26 25 25 25 25 26 27 27 26 26 27 29 31 32 32 32 32 32 32 32 33 33 33 32 32 33 33 33 33 32 32 31 31 31 31 31 31 31 31 32 32 31 31 30 29 29 29 28 27 27 27 27 27 26 26 27 28 29 28 27 28 30 31 32 31 29 28 31 30 27 29 32 33 34 36 34 33 33 33
26 25 25 25 25 26 26 26 26 26 26 26 26 26 27 28 29 31 32 32 31 31 32 32 33 33 33 33 33 33 33 33 33 33 32 32 31 30 30 29 30 30 31 31 31 32 32 31 31 30 29 29 29 28 28 28 28 29 27 26 27 28 28 29 29 28 29 30 32 31 29 28 28 30 31 29 31 34 32 32 35 35 32 32 31
26 25 25 26 27 27 26 26 26 26 26 26 27 28 29 30 31 31 31 31 31 32 33 33 34 34 34 34 33 33 33 33 33 32 31 31 30 30 30 30 31 32 32 33 33 32 33 33 32 32 31 31 31 31 30 29 29 30 29 27 27 29 30 30 30 30 31 32 33 31 30 30 29 28 28 28 29 32 30 30 33 33 31 30 31
27 28 28 28 28 27 26 26 26 26 26 27 28 30 30 31 31 31 31 31 32 33 34 34 34 35 34 34 34 34 34 33 33 31 31 30 29 30 31 32 32 33 33 33 34 35 35 34 34 34 34 33 33 32 31 31 31 33 33 32 32 33 34 34 34 33 33 34 35 34 34 36 34 30 31 30 29 29 29 30 32 33 30 31 34
28 29 29 28 27 27 28 27 26 26 27 28 29 30 30 30 31 31 32 33 33 34 35 35 35 35 35 35 35 35 34 34 32 32 31 29 27 28 30 31 32 32 33 33 34 35 35 35 35 35 35 35 34 34 33 33 34 35 35 35 36 36 38 39 39 38 37 37 38 37 38 40 39 35 34 33 31 30 31 32 34 35 33 33 37
29 29 29 28 27 28 29 27 26 27 28 29 29 29 30 30 31 32 33 34 34 35 35 35 35 35 35 36 36 35 35 34 32 31 31 30 27 26 28 31 32 33 33 34 35 36 36 36 36 36 36 36 35 35 35 34 34 35 35 35 36 36 36 38 40 41 41 41 42 42 42 43 43 40 38 38 36 34 34 34 35 36 35 34 36
29 29 29 28 28 28 28 27 27 28 29 29 29 30 31 32 33 33 34 34 35 35 35 35 35 35 35 36 36 36 35 34 32 31 32 30 27 25 27 30 32 33 33 35 36 37 37 36 36 36 36 34 34 34 35 35 35 35 35 35 36 34 33 33 36 39 41 42 43 45 44 44 45 45 43 40 40 39 38 38 37 36 35 34 34
28 29 29 28 28 28 27 27 29 30 30 30 30 31 32 33 33 34 34 34 35 35 35 35 35 35 35 35 36 36 35 34 32 32 32 30 27 27 28 30 32 32 33 35 36 36 35 34 34 35 34 33 33 33 34 35 35 34 33 33 34 33 33 34 35 36 37 38 41 43 43 43 45 47 46 42 41 42 42 41 39 38 39 38 36
27 28 29 28 27 27 27 28 30 31 31 30 31 32 32 33 33 33 34 34 35 35 35 36 36 35 35 35 36 36 35 33 32 32 31 30 28 28 29 30 31 32 34 34 34 34 33 32 31 32 32 33 32 32 33 34 35 35 34 34 34 35 37 38 37 36 35 35 37 39 40 41 43 46 46 46 46 47 46 44 42 40 40 41 41
27 28 28 28 28 28 28 30 30 31 31 31 31 32 32 33 33 34 35 35 35 36 36 36 36 36 36 35 36 37 35 33 31 31 30 29 28 28 29 30 30 31 32 32 32 32 31 30 30 31 32 33 33 31 31 33 35 36 37 38 38 39 40 40 39 38 38 37 38 39 40 41 41 42 43 44 46 48 48 48 47 45 43 42 42
27 28 29 28 28 29 29 30 31 31 32 32 32 32 33 34 34 35 35 36 36 37 37 37 36 36 36 36 36 37 36 34 32 30 30 29 28 28 28 28 28 29 30 31 31 30 29 29 29 30 32 33 34 32 30 30 33 36 38 39 40 41 41 40 39 39 39 39 40 41 42 43 42 43 43 41 40 41 44 47 48 49 49 48 45
29 29 29 29 29 30 30 31 32 32 32 33 33 33 34 35 35 35 36 36 37 37 37 37 37 36 36 36 35 36 37 35 32 31 30 29 27 26 26 26 27 28 29 30 30 29 28 28 28 29 31 33 33 31 29 30 33 36 38 39 39 39 39 38 39 39 39 39 39 40 42 43 42 44 45 43 39 38 42 46 46 46 49 51 50
30 30 30 30 30 31 31 32 32 32 33 33 33 34 35 35 36 36 36 36 36 37 37 37 37 36 35 35 34 35 36 34 32 31 30 27 25 24 24 26 27 27 27 28 29 29 29 29 27 28 30 31 31 31 30 32 34 35 35 35 35 36 37 38 39 39 39 40 41 41 42 42 40 41 44 44 42 40 42 45 46 46 47 48 48
31 31 31 31 32 32 32 32 32 32 33 33 34 34 35 36 36 36 36 35 36 36 36 36 37 36 35 34 34 33 34 34 31 30 28 26 24 23 24 26 27 26 26 27 29 29 28 28 28 28 29 30 31 31 31 32 32 33 33 34 35 37 38 38 39 39 39 40 41 42 42 42 41 39 40 41 42 42 43 45 46 45 47 48 48
32 32 32 33 33 33 33 32 32 32 33 33 34 35 35 36 37 36 36 35 35 36 36 35 36 36 34 34 34 33 32 32 31 29 26 24 22 21 22 24 24 24 27 27 28 28 28 30 31 30 30 32 33 32 31 31 33 35 36 37 38 39 39 38 38 39 40 41 41 40 40 41 40 39 37 36 38 39 40 42 43 43 44 48 49
32 33 33 34 34 34 33 32 32 32 33 33 35 36 36 36 36 36 36 35 35 35 35 34 34 35 34 33 33 33 31 30 29 28 26 23 21 20 21 22 22 24 27 28 28 30 30 32 32 30 30 33 34 33 33 34 35 37 39 39 40 40 40 39 39 40 40 41 40 39 38 39 39 38 36 36 36 35 35 36 37 39 41 44 46
33 33 34 35 34 34 33 32 32 33 34 34 35 36 36 35 35 35 35 35 35 35 34 33 33 34 35 34 33 32 31 29 28 26 25 25 24 21 20 21 22 24 27 29 30 31 31 31 32 31 31 33 33 33 35 37 38 38 39 39 40 41 41 41 40 41 40 39 37 36 36 37 37 36 35 35 34 33 33 32 33 36 38 40 41
33 34 35 35 35 34 34 33 33 34 34 34 35 36 36 35 35 35 34 35 35 35 34 33 33 34 35 35 34 32 30 29 26 24 25 27 27 23 21 22 23 25 27 29 30 30 30 29 30 30 31 32 32 34 35 36 36 36 36 38 39 40 40 40 40 40 38 35 33 33 34 35 36 36 35 33 32 32 31 30 31 33 35 36 36
34 35 36 36 36 35 35 35 34 34 34 34 34 35 34 34 34 35 35 35 35 35 35 34 33 33 34 35 34 32 30 28 27 25 27 29 30 27 24 24 25 26 27 29 29 29 28 28 29 30 31 32 33 34 34 33 31 31 33 34 35 36 36 36 36 35 34 32 31 30 32 34 34 34 33 32 31 31 30 29 29 30 31 32 32
36 36 37 37 36 36 36 36 35 35 34 34 33 33 33 34 34 35 35 35 35 35 35 34 33 33 33 34 33 31 30 29 29 28 29 31 32 30 28 27 27 28 29 30 30 30 29 29 29 30 32 34 35 35 33 31 30 29 29 28 28 28 29 30 30 29 29 30 30 28 29 33 34 32 32 32 33 33 32 30 28 28 28 29 30
36 37 37 37 36 36 37 37 36 36 35 34 33 33 33 34 35 35 35 35 36 35 35 34 33 33 33 32 31 31 32 32 31 31 32 33 32 31 30 30 31 32 32 32 32 32 31 31 31 32 33 36 35 33 31 30 29 28 26 24 23 22 21 22 23 23 24 28 30 27 24 27 31 31 30 32 33 33 31 29 28 27 27 28 29
36 37 37 37 37 37 37 37 37 36 36 35 34 34 34 34 34 35 34 34 34 34 34 33 32 31 31 31 33 35 36 35 35 35 35 33 32 31 32 33 33 34 34 33 33 33 33 33 34 35 35 36 35 32 30 29 28 26 24 22 20 18 17 17 18 20 21 25 29 27 21 20 25 28 29 30 30 30 29 29 28 27 26 27 28
36 37 37 37 38 37 37 37 37 36 37 36 35 35 34 33 33 34 33 32 32 33 34 34 32 31 32 34 36 38 40 39 37 35 34 32 31 32 33 33 33 33 33 32 32 32 33 33 34 35 35 33 32 30 29 28 27 24 22 20 18 17 15 15 16 17 19 21 24 25 21 18 20 24 27 29 28 26 28 30 30 28 27 27 28
36 37 38 38 38 38 37 37 37 36 36 36 36 35 34 31 30 31 31 31 31 31 32 32 32 33 35 37 37 36 38 38 36 34 33 32 31 31 32 31 31 31 31 30 30 31 32 33 34 34 32 30 28 28 27 26 24 23 21 18 17 16 15 15 15 16 17 17 19 21 20 17 17 18 22 26 26 24 26 29 30 29 28 28 27
37 38 38 38 38 38 38 37 37 36 35 35 35 35 35 33 30 29 28 30 30 29 27 27 28 28 30 33 33 33 33 33 33 33 32 31 30 30 30 30 30 29 29 28 28 29 32 33 33 30 28 26 25 25 24 22 21 21 21 19 17 16 16 16 16 17 17 16 16 18 19 17 16 15 16 21 25 25 25 27 29 29 29 29 28
36 38 38 38 38 38 37 37 36 35 35 34 33 33 34 35 34 33 31 29 29 28 27 26 25 23 24 26 28 29 29 29 30 30 30 29 29 29 28 28 28 26 26 27 29 31 32 30 28 26 24 23 23 22 21 20 20 20 20 19 18 17 16 16 16 17 17 16 16 16 17 17 16 14 13 17 25 28 26 26 29 30 29 29 29
36 37 37 38 38 37 37 36 34 34 33 33 32 32 32 34 36 37 35 32 30 29 28 26 24 23 23 23 23 24 24 24 25 27 28 28 27 25 24 25 25 24 26 29 31 30 28 25 23 22 21 21 21 20 19 19 19 18 18 19 18 17 16 16 16 16 16 15 15 14 15 15 15 14 11 13 21 28 27 26 27 29 29 29 30
35 36 36 36 36 36 35 34 33 33 32 32 32 32 33 34 35 36 37 36 35 33 30 28 26 25 25 24 23 23 23 22 23 24 24 22 20 20 22 25 25 25 26 27 27 25 23 21 20 19 19 18 19 19 18 18 18 18 17 17 17 17 16 15 14 15 15 14 14 13 12 13 14 13 11 9 13 22 26 26 26 26 28 29 30
34 34 35 34 34 34 33 32 32 32 32 32 32 33 34 34 34 34 35 35 36 36 34 32 29 28 27 27 26 24 24 23 22 21 19 17 17 19 23 26 26 25 24 23 22 20 19 18 18 17 17 17 17 17 17 17 17 17 17 17 17 16 15 14 14 16 15 14 14 13 10 10 11 12 13 11 9 12 18 24 26 26 27 28 29
33 34 33 32 32 32 32 31 31 32 32 33 33 33 33 33 33 33 33 33 34 36 36 35 33 30 29 28 27 26 24 23 22 20 17 16 17 20 24 24 23 22 21 20 19 18 17 17 17 16 15 16 16 16 16 17 17 16 16 17 17 16 15 14 15 16 16 14 13 12 10 8 8 10 14 14 12 10 11 15 21 26 27 27 27
32 32 32 31 31 31 31 31 31 31 32 32 32 32 32 32 32 32 32 33 34 35 36 36 35 33 31 28 27 26 25 23 22 21 19 17 17 20 21 21 19 19 19 18 18 18 17 16 16 16 15 14 15 15 15 16 16 16 15 15 15 15 14 14 14 14 15 14 13 12 10 8 6 8 11 14 15 14 13 11 13 21 26 27 26
32 32 31 31 30 31 31 31 32 32 32 32 31 31 32 32 32 32 32 33 34 35 36 36 35 35 33 30 27 27 27 25 23 22 20 18 17 17 18 18 17 18 17 17 17 17 17 16 16 15 15 14 14 14 15 15 16 15 15 14 14 14 13 13 12 12 13 13 13 12 10 8 6 5 8 11 13 15 16 14 12 15 22 26 26
32 31 31 30 30 31 31 32 32 32 31 31 31 31 31 32 32 32 33 33 34 35 35 35 35 35 33 30 28 27 27 27 25 23 21 20 19 18 17 17 18 17 17 17 17 17 17 17 16 15 15 14 14 14 14 15 15 15 14 14 14 14 13 13 12 12 12 12 12 12 11 9 6 4 4 7 9 12 14 15 14 13 17 21 25
32 32 31 30 31 32 32 32 32 31 30 31 31 31 31 32 32 33 33 34 34 35 35 35 36 34 32 30 28 26 26 27 27 25 23 22 22 20 19 18 18 18 17 17 17 17 17 17 16 16 15 14 14 13 14 14 14 14 14 13 14 14 13 13 12 12 12 12 12 11 11 9 7 5 3 4 6 8 11 12 12 13 15 19 23
32 32 31 31 31 32 32 32 31 30 30 30 31 31 32 32 32 33 33 33 34 35 35 36 35 33 31 29 27 25 24 26 27 26 24 22 22 21 20 18 18 17 17 17 16 17 17 17 17 16 15 15 14 14 14 13 13 14 14 13 13 13 13 13 12 12 11 11 11 10 10 9 8 6 4 3 4 5 7 9 11 12 14 18 21
32 32 32 32 32 32 33 32 31 30 30 31 31 32 32 33 33 33 33 34 35 36 36 35 34 32 31 30 28 25 24 25 27 26 24 22 21 20 20 19 18 18 17 17 16 17 17 17 17 16 15 15 15 14 14 13 13 13 13 13 13 13 13 13 12 12 11 10 10 9 9 9 8 7 5 3 3 3 5 8 10 10 10 13 18
32 32 32 33 33 33 33 32 31 31 31 31 32 32 33 33 34 34 34 34 35 34 34 34 34 32 31 30 28 27 27 27 26 26 24 22 21 20 20 19 19 18 18 17 16 16 17 17 17 16 15 15 15 14 14 13 13 12 13 13 13 13 13 14 13 12 11 10 9 8 8 8 7 7 6 4 3 2 3 6 9 10 9 8 10
33 33 33 33 34 34 33 32 31 31 31 31 32 33 33 33 34 34 33 34 34 34 34 34 33 33 32 31 29 29 28 27 26 25 24 23 22 21 20 19 19 19 18 17 16 16 17 17 17 16 15 15 14 14 13 13 12 12 12 13 13 13 14 14 14 13 12 11 9 8 7 7 7 6 6 5 3 2 2 4 6 8 8 7 6
34 34 34 34 34 34 33 32 31 31 31 32 33 34 34 34 34 33 33 33 33 33 33 33 33 32 32 31 30 29 28 27 26 25 24 23 22 21 20 19 19 19 19 18 16 16 16 17 16 16 15 15 14 14 13 12 12 11 11 12 12 13 14 15 14 13 12 12 10 9 7 7 6 6 6 5 4 2 2 4 5 6 8 8 7
35 35 34 34 34 34 33 32 31 31 32 33 34 34 34 34 33 33 33 33 33 33 33 33 32 32 31 30 29 28 28 27 26 25 25 24 23 21 20 20 19 19 18 18 17 16 16 16 16 16 16 15 14 13 13 12 11 11 10 10 11 13 14 15 14 13 12 12 10 9 8 6 6 6 5 5 4 3 2 3 4 6 7 8 8
35 35 34 34 33 33 33 32 31 32 33 33 34 34 34 34 33 32 32 32 32 32 32 32 31 31 30 29 29 28 27 27 26 26 26 25 23 21 20 20 19 19 18 18 17 16 16 16 16 15 15 15 14 14 13 12 12 11 10 11 12 13 14 14 14 13 12 11 10 9 8 6 5 5 4 4 4 3 2 3 4 5 7 9 10
36 35 34 33 32 32 32 31 32 32 33 33 33 33 33 33 33 33 32 32 31 31 31 31 31 30 29 28 28 27 27 27 26 26 26 25 24 22 21 20 19 19 18 18 18 17 16 16 15 15 15 15 14 14 14 13 12 11 11 11 12 13 13 14 13 13 12 11 10 9 8 7 5 4 4 3 4 3 2 2 3 5 7 8 10
35 34 33 32 32 31 31 31 32 32 32 32 33 33 32 33 33 32 32 32 31 30 30 30 30 29 28 28 27 27 27 26 27 27 26 25 24 23 22 21 20 19 18 18 18 17 16 15 15 15 14 14 14 14 14 13 12 12 11 12 12 12 12 13 13 12 11 11 10 9 8 7 6 5 3 3 3 3 2 1 3 4 6 7 9
35 34 33 32 31 31 31 31 31 32 32 32 32 32 32 32 32 32 32 32 31 30 30 29 29 28 28 28 27 27 26 26 26 26 25 25 25 25 24 22 20 19 18 18 18 18 17 16 15 15 14 14 14 14 14 13 12 12 12 12 12 12 12 12 11 11 11 10 9 8 8 7 6 5 4 3 2 2 2 1 2 3 5 6 8
34 33 32 31 30 30 31 31 31 31 31 31 32 32 32 32 32 32 32 32 31 31 30 29 29 28 28 28 27 27 26 25 25 25 25 25 26 25 24 22 21 20 19 18 18 18 17 16 15 15 14 14 13 14 14 13 12 12 12 12 12 12 12 11 10 10 10 10 9 8 8 7 7 5 4 3 3 2 2 2 1 2 4 5 7
Wind_Direction
319 308 304 305 309 314 317 318 318 317 317 316 312 304 300 302 306 308 309 311 314 316 315 316 316 316 316 316 316 316 316 315 315 314 312 311 311 310 309 308 305 303 302 300 299 299 296 293 291 289 287 284 281 279 278 277 276 274 273 272 268 262 257 257 263 268 269 268 267 268 267 268 266 263 262 261 259 258 258 260 263 265 267 269 272
315 308 303 304 307 312 315 317 317 315 315 314 312 307 301 300 301 303 305 310 314 315 315 316 316 316 316 316 315 316 316 315 315 313 311 310 310 309 309 308 305 303 302 301 300 299 295 292 290 289 287 285 283 282 281 280 278 276 275 274 273 270 264 260 261 266 270 269 268 268 268 268 268 267 267 267 267 267 265 264 265 266 267 268 269
312 309 303 301 303 307 312 315 314 313 313 313 310 306 302 300 298 299 303 308 312 314 314 315 315 315 315 314 315 315 314 314 313 311 310 309 309 309 308 306 304 302 301 300 299 298 294 291 291 291 289 287 286 285 283 282 280 278 276 275 274 272 269 264 262 264 269 271 269 268 269 267 266 267 268 268 266 265 263 263 264 264 265 265 264
311 309 303 300 301 305 309 312 312 310 310 309 306 305 304 303 300 300 303 308 312 314 314 314 314 314 314 314 313 313 313 312 311 310 309 309 308 307 306 304 302 301 300 300 299 298 295 293 292 291 289 288 287 286 284 283 281 279 277 276 274 273 272 269 266 266 270 273 272 271 271 270 267 265 265 265 263 262 263 264 265 266 266 264 263
308 307 303 300 301 303 309 312 312 310 307 305 303 304 305 303 302 302 305 309 312 313 313 314 314 314 313 314 313 312 312 310 309 308 308 308 307 306 306 304 303 301 300 300 299 297 294 292 291 290 289 287 287 286 285 282 281 280 279 278 277 277 276 273 270 269 270 273 274 274 274 272 270 269 267 266 266 266 266 265 265 265 265 264 263
304 305 302 299 299 303 308 310 309 307 304 303 303 305 306 304 302 303 306 309 311 312 312 312 313 313 312 312 312 311 310 308 307 307 307 307 307 306 305 304 303 301 300 298 297 294 292 290 290 289 288 287 286 285 284 282 281 281 280 279 278 277 276 274 272 271 270 271 274 276 276 274 274 274 272 270 270 270 269 268 268 266 266 266 265
301 302 301 299 300 302 305 306 305 304 302 303 304 306 306 304 302 303 306 308 310 311 312 312 312 311 310 309 309 308 308 307 306 306 307 308 308 306 305 304 302 300 298 296 295 293 291 290 289 289 288 287 286 286 285 283 283 282 281 280 279 277 275 274 273 270 269 270 273 275 277 277 274 272 270 268 268 269 269 270 271 269 268 268 267
299 300 300 299 298 299 301 303 303 303 303 303 304 304 303 302 301 304 306 308 310 311 312 312 310 309 309 308 307 306 306 306 306 308 308 308 307 306 305 302 300 298 296 294 293 293 292 291 290 289 289 289 288 287 286 285 284 283 280 278 277 276 275 275 274 271 269 270 272 274 276 278 276 275 275 272 267 266 267 269 270 270 270 269 268
298 299 300 298 297 298 301 303 303 303 302 302 301 301 301 301 302 304 307 308 310 311 311 310 309 309 308 307 307 306 306 305 307 308 308 308 310 310 308 305 302 300 299 297 296 295 295 295 293 292 292 292 292 291 290 288 286 283 280 278 276 274 273 273 272 270 269 268 269 271 273 275 275 276 278 275 270 268 268 268 269 269 269 269 267
296 299 302 302 302 302 304 304 303 301 300 299 299 299 301 303 304 306 308 308 310 311 310 310 310 309 309 308 307 306 305 305 306 307 309 311 314 312 307 304 303 302 301 299 297 296 296 295 294 293 292 292 291 289 286 284 279 274 272 273 273 273 271 270 268 267 266 265 267 268 270 272 272 271 271 272 272 271 270 268 267 268 268 269 270
296 300 303 305 305 302 301 302 301 300 300 299 299 301 302 303 305 307 309 309 310 310 309 309 309 309 308 307 306 305 304 304 306 308 308 309 310 307 303 301 300 299 296 293 291 290 290 288 287 287 287 286 285 283 281 277 272 268 268 267 266 267 266 266 266 265 264 263 265 266 266 268 270 269 269 269 270 270 270 268 267 268 267 268 272
298 299 300 302 301 299 299 300 300 302 303 302 301 302 302 303 306 308 308 309 309 308 308 308 307 307 307 306 305 305 304 304 307 308 307 307 306 303 300 300 298 294 291 289 287 287 286 286 286 285 285 285 283 282 281 278 273 269 267 266 264 263 261 261 262 263 262 262 263 263 263 265 267 267 266 267 268 269 269 267 265 265 265 264 266
297 297 298 299 299 299 300 299 299 302 304 303 302 301 301 303 306 307 307 307 307 306 306 306 306 306 306 305 305 304 304 305 307 306 306 307 306 300 298 298 295 292 290 288 287 288 288 289 289 288 287 286 284 281 280 279 276 273 270 268 267 265 262 260 261 262 262 263 263 263 264 265 266 267 266 267 267 266 265 263 262 262 262 261 260
297 297 299 300 300 300 300 298 298 301 303 302 300 299 301 303 305 306 306 306 306 306 307 307 307 307 306 305 305 304 303 305 306 306 307 308 306 299 296 295 292 290 288 287 288 289 289 289 289 288 287 286 283 281 280 280 279 278 275 271 269 267 266 266 267 267 266 265 264 265 266 265 265 265 265 264 263 262 261 260 259 259 260 260 260
298 300 302 304 303 301 299 298 299 300 302 302 301 300 302 303 305 306 307 308 308 308 308 308 307 307 307 306 305 303 303 305 306 305 307 307 302 297 293 292 289 287 286 287 288 289 290 290 290 289 288 286 283 280 278 278 278 278 277 275 273 272 271 273 275 276 276 273 271 271 271 269 267 266 265 262 260 259 259 258 258 259 260 260 259
302 304 305 306 305 302 300 300 300 302 305 304 303 303 304 306 307 309 310 310 309 309 308 308 308 307 307 307 305 304 304 306 306 306 306 305 301 297 294 293 291 288 288 289 290 290 291 291 290 289 287 285 284 281 277 275 275 275 275 275 276 276 276 278 279 280 281 279 278 278 276 273 270 267 266 263 260 260 259 258 256 255 256 257 257
306 307 307 306 305 303 303 303 304 306 307 305 305 306 308 309 310 311 311 310 309 309 308 308 308 307 307 307 307 306 305 306 308 308 307 305 302 298 296 295 292 290 289 291 292 293 292 290 288 287 284 283 283 282 277 273 272 273 274 275 275 276 277 278 279 280 280 280 280 279 278 277 273 269 267 265 262 260 256 253 254 252 251 252 254
308 308 307 307 307 306 306 306 307 308 307 307 308 309 310 310 310 311 309 309 308 308 308 308 307 308 308 307 307 306 306 307 309 308 306 305 302 299 296 294 293 293 293 295 295 295 293 288 284 283 282 282 284 283 278 274 274 275 276 277 277 277 278 278 279 279 280 279 277 276 276 276 273 268 268 268 266 261 253 249 252 252 248 248 251
309 308 307 308 307 307 307 307 308 308 309 309 309 309 309 309 309 309 308 308 308 308 308 308 307 307 307 306 306 305 305 306 307 307 307 306 302 297 297 298 299 299 298 298 297 297 296 293 289 285 284 284 284 283 279 276 277 278 278 279 281 281 281 280 279 281 282 282 283 282 282 281 276 268 264 263 262 261 256 252 252 250 245 244 246
308 307 307 308 307 308 308 309 309 309 309 309 308 308 307 307 308 308 308 308 308 308 308 307 307 307 307 306 305 304 304 305 307 308 309 307 300 295 298 302 303 300 298 299 299 299 298 295 291 288 286 284 282 279 276 274 276 279 282 285 286 283 281 281 282 284 285 285 286 286 285 284 281 273 265 260 258 258 256 254 252 247 243 242 243
306 306 307 308 308 309 310 310 310 309 308 307 306 306 306 307 307 308 308 308 307 307 307 308 307 306 306 306 305 304 305 307 309 310 310 307 300 296 298 300 299 300 301 300 298 296 294 292 292 292 290 287 282 279 278 276 276 281 286 288 284 281 283 286 286 284 283 284 286 285 283 281 278 272 266 262 260 258 254 251 250 247 243 241 242
306 306 307 308 309 310 311 311 310 309 307 307 306 306 306 307 307 307 308 307 307 307 308 309 308 307 307 307 306 307 308 310 312 313 313 311 305 299 296 295 295 300 303 301 297 297 297 296 295 295 292 289 286 286 285 282 281 284 286 283 279 279 283 285 284 284 286 287 286 283 280 277 272 267 264 263 262 259 254 249 247 246 246 245 245
306 305 307 308 310 311 312 311 310 308 307 308 307 306 306 307 307 308 308 308 308 309 310 312 311 310 309 309 309 310 311 312 313 311 311 313 312 305 297 294 294 300 303 301 299 300 299 296 295 294 294 294 292 289 285 284 285 286 284 280 279 280 282 282 283 286 288 287 285 280 277 273 268 264 264 264 263 260 256 251 246 245 246 248 248
306 306 308 310 311 312 312 310 309 308 308 308 307 306 307 308 308 308 309 308 308 309 311 313 312 310 309 309 309 310 310 310 310 306 305 310 314 312 304 299 296 298 299 298 299 300 299 297 296 296 296 294 289 286 284 285 286 285 282 280 280 281 283 283 284 287 289 287 284 280 274 270 266 262 263 264 262 260 258 254 247 244 244 246 247
307 308 309 310 311 312 311 310 309 309 309 308 307 307 308 308 309 309 309 308 307 307 309 310 309 309 308 308 308 310 310 308 307 304 303 308 314 315 312 305 302 303 302 301 303 304 302 300 299 298 298 295 294 296 298 297 294 289 284 281 281 281 283 285 286 288 289 286 283 280 275 270 266 264 265 264 261 258 256 253 248 244 244 245 245
309 309 309 310 311 311 310 310 310 310 310 309 308 308 309 309 309 309 308 306 305 305 305 306 307 307 307 307 308 309 309 307 305 303 304 308 312 315 314 310 309 309 307 305 306 306 303 301 301 301 301 301 303 306 305 301 298 295 290 286 284 283 284 286 286 288 288 284 281 281 277 270 265 263 262 260 257 254 251 247 245 244 242 241 240
309 309 309 310 310 310 311 312 312 311 311 311 310 309 309 308 307 306 306 305 303 302 302 304 305 306 306 308 308 307 307 306 303 302 305 309 312 314 313 311 310 309 307 307 308 307 305 303 300 299 300 302 305 305 301 298 298 298 295 291 289 287 288 288 286 286 287 282 278 279 278 269 263 261 259 256 254 252 248 244 242 242 240 239 238
308 308 309 310 310 311 312 312 312 312 312 311 309 307 306 306 304 303 304 304 302 302 303 303 305 308 308 308 307 306 305 302 300 302 306 309 311 310 308 306 305 305 305 306 306 305 303 300 297 298 301 304 306 304 301 301 301 300 298 296 294 294 294 293 287 282 281 277 272 272 273 266 259 258 257 253 249 247 246 244 241 239 237 236 235
308 308 310 310 311 312 313 313 313 312 311 309 306 304 304 304 303 303 306 307 305 303 303 304 307 309 307 305 303 301 299 299 301 304 306 305 303 301 299 298 298 298 298 300 301 300 297 295 297 301 304 305 305 303 302 303 303 301 299 300 302 302 301 301 301 295 289 283 274 270 270 264 256 256 256 250 244 244 246 242 235 231 231 232 232
308 309 310 311 312 313 313 312 312 310 308 308 307 305 305 305 303 301 303 303 302 300 299 301 304 304 300 298 297 295 294 297 300 300 299 298 296 295 293 291 291 291 294 297 297 294 293 295 300 303 305 303 301 301 302 304 304 303 304 306 309 311 309 309 312 311 305 299 285 276 275 271 261 258 255 247 241 244 245 238 229 225 226 229 231
308 310 311 312 312 312 312 311 311 310 308 308 307 307 306 306 305 303 301 302 303 302 301 300 299 297 293 292 293 292 291 294 295 295 295 296 293 291 289 288 288 290 293 295 292 290 294 299 302 303 301 299 297 299 302 305 306 306 309 310 313 317 316 315 317 318 316 313 299 283 277 274 265 261 259 249 242 241 240 232 225 224 226 228 231
309 310 312 311 311 311 311 310 310 310 309 309 307 307 306 306 307 308 307 306 306 305 304 301 299 295 290 288 290 292 293 294 294 293 293 292 289 288 289 289 289 290 289 287 287 291 297 300 300 300 298 296 296 299 303 306 308 309 312 315 318 321 321 321 323 323 322 323 314 294 281 276 267 261 264 256 244 237 231 225 222 223 226 228 230
310 311 311 311 311 310 310 310 310 309 309 309 308 308 306 304 305 307 308 308 307 306 306 305 303 300 296 292 291 292 294 294 292 289 288 288 289 291 292 288 284 284 285 286 290 294 298 298 298 298 298 295 295 299 303 306 308 310 313 316 319 322 323 323 326 326 323 324 322 306 287 279 272 262 262 256 241 232 228 224 222 223 225 227 227
311 311 311 311 310 310 310 311 310 310 310 310 308 306 304 302 302 303 305 307 308 310 311 312 312 310 309 307 304 302 301 298 292 289 290 291 294 295 291 284 282 283 286 290 292 294 296 297 298 299 299 297 296 300 303 306 310 312 313 315 318 323 325 325 329 330 327 324 324 315 295 281 275 265 259 250 231 226 226 226 223 222 224 225 226
312 312 312 312 311 311 312 312 311 310 309 308 306 303 302 302 301 302 302 304 306 309 312 315 316 315 314 313 313 313 311 308 305 304 302 301 301 295 286 284 287 289 290 290 292 294 297 301 302 302 301 299 298 299 302 305 310 313 315 317 320 323 328 331 333 335 332 326 325 324 309 289 276 265 259 254 237 222 223 225 226 225 225 226 228
314 313 314 314 314 313 313 312 311 310 308 306 305 303 303 303 303 303 304 304 304 306 308 312 315 315 314 314 315 315 314 312 312 311 307 299 293 287 284 287 291 293 292 293 296 299 302 304 305 304 304 302 301 301 302 304 308 313 315 317 319 323 330 336 336 334 334 332 328 327 323 305 280 264 259 257 254 245 234 231 231 231 230 230 231
315 315 316 317 316 315 314 313 312 310 308 306 305 304 304 304 303 303 303 303 303 303 305 308 312 313 315 317 317 314 313 313 311 308 304 294 284 281 284 289 293 295 297 300 302 303 305 307 307 307 306 305 304 303 303 304 307 311 314 315 318 322 328 333 333 332 334 335 332 328 330 326 301 268 257 256 257 254 249 245 241 237 235 233 231
318 318 318 318 317 316 315 314 313 310 308 306 305 305 305 304 304 302 301 301 302 302 303 306 308 309 312 317 318 314 312 312 310 307 306 302 295 290 290 293 296 300 303 304 305 307 307 307 308 308 308 307 306 305 305 306 309 312 314 313 315 321 324 326 329 333 336 337 336 333 331 333 327 290 256 252 255 253 249 251 253 244 237 234 231
320 320 320 320 319 318 316 314 312 310 309 307 307 306 305 304 304 302 301 300 300 301 302 304 305 306 310 314 315 313 311 310 310 310 310 309 308 305 301 297 299 302 304 305 306 308 307 307 308 309 309 309 307 305 307 309 310 312 314 313 314 318 322 324 330 335 338 339 339 338 335 331 330 317 266 249 251 250 246 249 252 244 235 234 235
321 321 322 322 320 318 316 314 313 312 311 309 308 307 304 304 302 301 300 299 299 301 302 303 303 306 309 311 312 311 308 306 308 310 311 310 309 308 304 300 299 300 303 305 306 307 308 308 308 308 309 309 309 307 308 311 312 313 314 314 313 316 320 324 328 333 338 340 339 339 339 334 327 316 284 249 244 242 239 240 243 239 231 229 233
322 322 323 322 320 318 317 316 315 314 313 310 308 306 304 304 302 301 300 299 298 299 300 301 303 306 308 308 309 307 300 297 300 304 306 306 305 304 303 301 299 299 302 304 304 305 308 308 307 308 308 309 310 308 308 310 312 313 313 314 313 314 316 320 323 327 332 337 339 339 339 336 332 324 305 263 236 231 229 228 231 232 228 228 233
324 323 323 322 320 318 317 317 316 315 313 311 309 308 306 304 303 301 299 298 297 298 299 301 304 307 307 307 307 304 297 294 297 301 303 304 302 302 302 302 300 299 300 302 303 304 306 306 307 307 307 307 308 308 308 309 312 313 314 314 313 313 314 315 318 322 327 332 336 339 339 337 334 328 316 289 248 226 219 220 224 227 228 234 240
325 324 323 322 321 319 318 317 316 315 313 311 310 308 306 304 303 301 299 299 299 299 299 301 304 306 306 306 306 303 300 300 301 302 304 305 304 303 303 302 300 298 297 299 301 301 301 303 305 306 306 306 305 305 306 308 309 311 313 312 311 313 314 312 313 319 325 328 331 336 339 339 335 329 321 305 276 248 213 209 216 221 224 227 230
326 325 324 322 321 320 318 317 315 314 313 311 310 309 308 306 305 303 302 301 300 300 300 300 302 303 304 305 304 303 301 302 302 303 303 304 304 304 303 301 299 297 296 297 299 299 298 300 303 305 305 304 302 302 304 305 305 307 308 308 309 311 310 309 313 319 323 324 327 332 335 339 338 332 326 317 300 273 211 196 198 204 210 206 176
327 326 324 323 321 320 318 317 315 314 312 311 310 310 309 308 307 305 303 301 300 299 299 299 300 300 300 301 302 301 301 301 302 302 302 303 304 304 303 302 300 298 296 296 297 296 295 296 299 303 305 303 301 300 300 301 301 300 301 302 304 304 303 306 313 319 318 317 321 325 329 336 338 336 333 327 316 297 221 199 187 179 188 193 165
327 325 323 322 321 320 319 318 316 313 312 310 309 310 310 309 308 306 304 302 300 299 298 298 299 299 299 300 300 301 301 301 301 302 303 304 306 306 304 303 300 297 295 294 294 294 294 294 295 299 302 303 301 299 298 299 298 296 296 295 293 293 298 305 312 314 312 312 314 316 319 328 334 335 338 335 320 302 245 206 194 179 178 182 170
326 325 323 322 321 320 319 319 316 313 312 311 310 310 309 309 308 307 305 304 302 300 298 298 299 299 300 301 300 300 301 301 301 301 302 304 306 306 305 303 301 298 296 294 294 294 294 293 293 295 298 301 302 299 297 297 296 294 294 291 287 289 297 305 308 309 308 309 310 309 310 315 322 326 333 336 323 304 260 217 203 190 185 183 175
326 325 324 323 322 320 319 318 316 313 313 312 311 310 310 309 308 307 306 305 303 301 300 300 299 299 300 301 301 301 301 300 299 300 301 303 305 307 307 306 303 301 298 296 294 294 294 292 291 292 293 297 299 298 296 295 295 294 293 289 288 292 298 301 304 307 307 304 303 303 301 302 308 314 319 327 326 316 281 225 205 196 194 191 184
326 325 324 324 323 321 320 318 316 314 313 313 312 311 311 310 308 307 306 305 304 302 301 301 300 299 299 300 300 302 301 300 299 299 300 302 305 309 310 308 304 301 299 296 295 294 294 292 290 290 289 291 295 297 296 294 293 293 293 292 292 294 296 297 300 304 303 301 299 297 293 291 292 296 303 313 315 314 306 250 207 200 199 196 191
326 326 325 325 324 323 321 319 317 316 316 314 313 312 311 310 309 308 307 305 304 303 302 302 300 299 299 298 299 301 301 300 300 300 299 301 304 307 309 309 306 302 300 298 295 295 294 292 290 289 288 287 289 292 294 294 293 292 292 294 294 293 293 295 298 300 299 297 296 291 287 284 281 277 279 289 289 291 295 274 218 199 199 200 197
327 327 327 327 326 324 322 321 320 319 318 317 314 313 312 311 309 308 307 305 303 303 303 302 301 300 299 298 299 300 301 302 301 300 299 300 302 305 307 309 308 305 303 300 296 295 293 291 290 288 286 285 285 287 290 293 294 292 291 291 291 292 293 296 297 296 294 294 292 288 283 279 274 267 263 261 264 263 260 246 220 196 196 200 200
Height
1501 1499 1497 1495 1492 1490 1488 1486 1485 1483 1481 1480 1479 1477 1476 1473 1472 1470 1468 1467 1465 1463 1461 1460 1458 1457 1455 1454 1452 1451 1449 1448 1447 1445 1444 1442 1441 1440 1439 1438 1436 1435 1434 1433 1432 1432 1431 1429 1429 1428 1428 1427 1426 1426 1425 1425 1424 1423 1423 1422 1422 1423 1422 1422 1417 1409 1409 1415 1415 1414 1416 1416 1415 1415 1416 1415 1415 1416 1416 1416 1416 1416 1416 1416 1416
1498 1497 1494 1492 1490 1488 1486 1484 1482 1480 1478 1477 1476 1475 1473 1471 1470 1467 1466 1464 1463 1461 1459 1457 1455 1454 1452 1450 1449 1447 1446 1445 1444 1442 1441 1439 1438 1437 1436 1434 1433 1431 1430 1429 1428 1428 1427 1425 1424 1424 1424 1423 1422 1421 1421 1420 1420 1419 1419 1418 1417 1417 1418 1417 1415 1409 1405 1408 1410 1409 1410 1412 1410 1410 1411 1410 1410 1411 1411 1410 1411 1411 1411 1412 1412
1496 1494 1492 1490 1487 1485 1483 1481 1480 1478 1476 1474 1473 1472 1471 1469 1467 1465 1463 1461 1459 1458 1456 1454 1453 1451 1449 1447 1446 1444 1443 1441 1440 1439 1438 1436 1434 1433 1432 1431 1429 1428 1426 1425 1424 1424 1423 1421 1420 1420 1420 1418 1417 1417 1416 1416 1416 1414 1414 1414 1413 1412 1413 1413 1411 1408 1403 1402 1404 1404 1404 1406 1405 1405 1407 1406 1406 1406 1405 1405 1406 1406 1406 1407 1407
1493 1491 1489 1487 1485 1483 1481 1479 1477 1475 1473 1472 1470 1469 1468 1466 1464 1462 1460 1458 1456 1454 1453 1451 1450 1448 1446 1445 1443 1441 1440 1438 1437 1435 1434 1433 1431 1430 1428 1427 1426 1424 1423 1421 1420 1419 1418 1417 1416 1416 1415 1414 1412 1412 1412 1411 1411 1411 1409 1409 1409 1408 1408 1409 1407 1405 1402 1398 1398 1399 1399 1400 1400 1400 1402 1401 1401 1401 1400 1400 1400 1400 1401 1402 1403
1490 1488 1486 1484 1482 1480 1478 1476 1474 1472 1471 1469 1467 1466 1464 1463 1461 1459 1457 1455 1453 1452 1450 1448 1446 1444 1442 1441 1439 1438 1436 1435 1433 1432 1430 1429 1428 1426 1424 1423 1421 1420 1418 1417 1416 1415 1414 1412 1412 1411 1410 1409 1408 1407 1408 1407 1407 1407 1406 1405 1405 1405 1404 1405 1404 1403 1401 1396 1394 1394 1395 1395 1394 1394 1396 1396 1395 1395 1395 1395 1395 1395 1396 1396 1397
1487 1485 1483 1481 1479 1477 1475 1473 1472 1470 1468 1466 1465 1463 1461 1459 1458 1456 1454 1452 1450 1449 1447 1445 1443 1441 1439 1438 1436 1434 1433 1431 1430 1428 1427 1425 1424 1422 1420 1419 1417 1416 1414 1413 1412 1411 1410 1408 1407 1407 1406 1405 1404 1403 1403 1404 1403 1403 1402 1402 1402 1402 1401 1400 1400 1399 1397 1394 1391 1390 1390 1390 1390 1389 1391 1392 1391 1390 1390 1389 1390 1390 1391 1391 1391
1484 1482 1480 1478 1476 1474 1472 1471 1469 1467 1465 1463 1461 1460 1458 1456 1454 1452 1451 1449 1447 1445 1443 1442 1440 1438 1436 1434 1433 1431 1429 1427 1426 1424 1423 1421 1420 1418 1416 1415 1413 1411 1410 1409 1408 1406 1405 1404 1403 1402 1402 1401 1400 1400 1400 1400 1399 1399 1399 1398 1398 1398 1397 1396 1396 1396 1394 1391 1389 1387 1386 1387 1386 1385 1385 1388 1388 1386 1386 1385 1384 1385 1386 1386 1386
1481 1479 1477 1475 1473 1471 1469 1468 1466 1464 1462 1460 1458 1456 1455 1453 1451 1449 1447 1445 1444 1442 1440 1438 1436 1435 1433 1431 1429 1427 1425 1424 1422 1421 1419 1418 1416 1414 1412 1411 1409 1407 1406 1404 1403 1402 1400 1399 1398 1398 1397 1397 1396 1396 1396 1396 1395 1394 1394 1395 1394 1394 1393 1392 1392 1392 1390 1388 1386 1385 1384 1383 1382 1381 1381 1383 1382 1381 1382 1382 1380 1380 1382 1382 1382
1477 1475 1474 1472 1470 1468 1466 1464 1462 1461 1459 1457 1455 1453 1451 1449 1447 1445 1444 1442 1440 1439 1437 1435 1432 1431 1429 1427 1425 1423 1421 1420 1418 1417 1415 1413 1412 1410 1408 1406 1404 1402 1400 1398 1397 1397 1395 1394 1394 1393 1393 1392 1392 1392 1391 1391 1391 1389 1389 1390 1390 1389 1389 1389 1388 1388 1387 1385 1383 1382 1381 1379 1379 1379 1378 1379 1378 1377 1379 1380 1377 1376 1378 1378 1377
1474 1472 1470 1468 1466 1464 1463 1461 1459 1457 1455 1453 1452 1449 1448 1446 1444 1442 1440 1438 1437 1435 1433 1431 1429 1427 1425 1423 1421 1419 1417 1416 1415 1413 1412 1410 1408 1406 1404 1402 1400 1397 1395 1393 1392 1391 1390 1389 1389 1388 1388 1387 1387 1387 1387 1387 1387 1386 1385 1386 1386 1385 1385 1384 1384 1383 1383 1381 1379 1378 1377 1374 1374 1376 1375 1375 1375 1375 1376 1376 1374 1373 1375 1374 1372
1471 1469 1467 1465 1463 1461 1459 1457 1456 1454 1452 1450 1448 1446 1444 1442 1440 1438 1437 1435 1433 1431 1429 1427 1425 1423 1421 1418 1417 1415 1413 1412 1411 1409 1408 1407 1407 1404 1401 1398 1397 1394 1392 1391 1389 1387 1387 1386 1385 1384 1384 1383 1383 1383 1382 1382 1382 1382 1382 1381 1381 1381 1380 1379 1378 1378 1378 1376 1374 1374 1373 1370 1370 1372 1371 1371 1372 1373 1373 1373 1372 1370 1371 1370 1368
1468 1466 1463 1462 1460 1458 1456 1454 1452 1450 1448 1446 1444 1442 1440 1438 1437 1435 1433 1431 1429 1427 1425 1423 1421 1419 1417 1414 1412 1410 1409 1408 1407 1405 1404 1403 1403 1401 1398 1396 1393 1391 1390 1388 1386 1384 1383 1382 1381 1380 1380 1379 1378 1378 1377 1377 1376 1376 1376 1376 1376 1376 1375 1374 1373 1373 1372 1371 1369 1369 1368 1366 1365 1366 1367 1367 1368 1369 1369 1369 1368 1367 1367 1367 1365
1464 1462 1460 1459 1457 1455 1453 1451 1449 1447 1445 1443 1441 1439 1437 1435 1433 1431 1429 1427 1425 1423 1421 1419 1417 1415 1413 1410 1408 1406 1404 1403 1402 1401 1399 1399 1399 1397 1395 1392 1389 1387 1385 1383 1381 1380 1378 1377 1376 1375 1375 1374 1374 1373 1372 1371 1371 1370 1370 1370 1370 1369 1369 1369 1368 1368 1368 1367 1365 1363 1363 1362 1361 1360 1362 1364 1364 1364 1363 1363 1364 1364 1363 1363 1362
1461 1459 1457 1455 1453 1451 1450 1447 1445 1443 1442 1440 1437 1435 1433 1431 1429 1427 1425 1423 1421 1418 1417 1414 1412 1411 1408 1406 1403 1401 1400 1399 1398 1397 1395 1394 1394 1393 1390 1388 1385 1383 1381 1379 1377 1376 1375 1374 1372 1370 1370 1369 1369 1368 1367 1366 1365 1364 1364 1364 1363 1363 1363 1363 1363 1362 1362 1362 1360 1357 1357 1358 1356 1354 1357 1359 1359 1358 1357 1358 1359 1360 1359 1358 1358
1458 1455 1454 1452 1450 1448 1446 1444 1442 1440 1438 1436 1434 1432 1430 1427 1425 1423 1421 1418 1416 1414 1412 1410 1408 1406 1404 1402 1399 1396 1396 1395 1394 1392 1391 1390 1389 1388 1385 1383 1380 1378 1376 1374 1373 1372 1371 1370 1368 1366 1365 1364 1364 1363 1362 1362 1361 1360 1359 1358 1357 1357 1357 1356 1356 1356 1355 1355 1353 1352 1351 1352 1351 1350 1351 1353 1352 1351 1352 1353 1354 1356 1355 1354 1354
1454 1452 1450 1448 1446 1445 1443 1441 1439 1436 1434 1432 1430 1428 1426 1423 1421 1419 1416 1414 1412 1409 1407 1405 1403 1401 1399 1397 1395 1392 1391 1391 1390 1388 1387 1386 1385 1383 1380 1377 1375 1373 1371 1370 1369 1367 1366 1365 1364 1362 1361 1360 1359 1359 1358 1358 1357 1356 1354 1353 1353 1352 1351 1350 1350 1349 1349 1348 1347 1346 1345 1344 1344 1344 1344 1345 1345 1346 1347 1348 1348 1350 1350 1348 1347
1451 1449 1447 1445 1443 1441 1440 1437 1435 1433 1430 1428 1426 1424 1421 1419 1417 1415 1412 1409 1407 1405 1403 1401 1399 1397 1395 1393 1390 1387 1385 1386 1385 1384 1383 1382 1380 1378 1375 1373 1371 1369 1367 1365 1364 1363 1362 1361 1360 1359 1357 1356 1354 1354 1353 1353 1352 1351 1350 1349 1348 1347 1346 1345 1345 1344 1343 1342 1341 1339 1338 1337 1337 1337 1338 1338 1339 1340 1341 1340 1340 1342 1343 1343 1342
1447 1445 1443 1441 1439 1438 1436 1434 1431 1429 1426 1424 1421 1419 1417 1415 1412 1411 1408 1405 1403 1401 1399 1396 1394 1393 1390 1388 1386 1383 1381 1381 1381 1379 1378 1377 1376 1374 1371 1369 1367 1365 1363 1361 1360 1359 1357 1357 1356 1355 1353 1351 1350 1349 1348 1348 1347 1346 1345 1344 1343 1342 1341 1340 1339 1338 1337 1336 1335 1334 1332 1331 1331 1330 1330 1331 1333 1335 1335 1333 1333 1335 1337 1337 1337
1443 1441 1439 1437 1436 1434 1432 1430 1427 1425 1422 1420 1418 1415 1413 1411 1408 1407 1404 1401 1399 1396 1394 1392 1389 1388 1386 1384 1382 1380 1377 1376 1376 1375 1374 1373 1371 1370 1368 1365 1363 1361 1359 1358 1356 1354 1353 1352 1352 1351 1349 1347 1345 1344 1343 1343 1342 1342 1341 1339 1338 1336 1335 1335 1334 1333 1332 1330 1329 1327 1326 1325 1324 1324 1324 1325 1326 1328 1329 1327 1328 1330 1330 1331 1331
1440 1438 1435 1434 1432 1430 1428 1426 1423 1421 1418 1416 1414 1411 1409 1407 1404 1402 1400 1397 1395 1392 1390 1388 1385 1383 1382 1380 1378 1376 1374 1372 1372 1371 1370 1369 1367 1366 1364 1362 1360 1358 1356 1354 1352 1350 1349 1348 1347 1346 1345 1343 1341 1340 1338 1337 1337 1336 1336 1334 1332 1330 1329 1329 1328 1327 1326 1324 1322 1321 1319 1317 1317 1316 1317 1318 1319 1320 1321 1321 1322 1323 1324 1324 1325
1436 1434 1432 1430 1428 1426 1424 1422 1420 1417 1415 1412 1410 1408 1406 1403 1400 1398 1395 1393 1390 1388 1386 1384 1381 1378 1377 1376 1373 1372 1370 1368 1367 1366 1365 1364 1363 1362 1360 1358 1357 1355 1353 1351 1349 1346 1345 1344 1342 1342 1341 1339 1337 1336 1334 1333 1332 1330 1329 1327 1326 1325 1324 1323 1322 1320 1319 1317 1316 1315 1313 1311 1310 1309 1310 1310 1311 1312 1313 1313 1314 1316 1318 1318 1319
1432 1430 1428 1426 1424 1422 1420 1418 1416 1414 1411 1409 1406 1403 1401 1399 1396 1394 1391 1388 1386 1384 1381 1379 1377 1374 1372 1371 1369 1367 1366 1364 1363 1361 1361 1360 1359 1358 1357 1355 1354 1352 1350 1347 1344 1342 1341 1339 1338 1337 1336 1335 1333 1332 1330 1329 1327 1325 1323 1322 1321 1320 1318 1316 1314 1313 1312 1311 1310 1308 1306 1305 1303 1303 1303 1304 1304 1305 1306 1307 1308 1310 1311 1312 1314
1428 1426 1424 1422 1420 1418 1416 1414 1412 1410 1407 1405 1402 1399 1397 1395 1392 1390 1387 1384 1381 1379 1377 1375 1372 1369 1367 1366 1364 1363 1362 1361 1359 1358 1357 1356 1355 1354 1352 1351 1351 1349 1345 1342 1340 1338 1336 1335 1334 1333 1332 1331 1329 1327 1325 1323 1321 1319 1318 1317 1315 1313 1311 1309 1308 1307 1306 1305 1304 1302 1300 1299 1298 1298 1298 1298 1298 1299 1300 1301 1302 1304 1305 1306 1308
1424 1422 1420 1418 1416 1414 1412 1410 1408 1406 1403 1401 1398 1395 1392 1390 1388 1385 1383 1380 1377 1374 1372 1371 1369 1366 1363 1361 1360 1359 1358 1357 1356 1355 1354 1352 1351 1349 1348 1347 1346 1344 1341 1338 1336 1334 1332 1331 1330 1329 1328 1326 1324 1322 1319 1317 1315 1314 1313 1312 1309 1307 1306 1304 1303 1302 1300 1299 1298 1296 1295 1293 1293 1292 1292 1292 1293 1294 1295 1296 1297 1299 1300 1301 1302
1420 1418 1415 1413 1411 1409 1407 1406 1404 1401 1399 1397 1394 1391 1388 1386 1383 1381 1379 1376 1373 1371 1369 1367 1365 1362 1359 1357 1355 1355 1354 1353 1352 1351 1351 1349 1347 1345 1344 1343 1341 1339 1337 1334 1333 1331 1329 1328 1326 1324 1322 1320 1318 1316 1314 1312 1311 1310 1308 1307 1305 1303 1302 1300 1299 1297 1295 1294 1292 1291 1290 1288 1288 1287 1287 1288 1289 1290 1291 1292 1292 1294 1295 1296 1297
1416 1414 1411 1409 1407 1405 1403 1401 1399 1396 1395 1392 1389 1387 1385 1382 1379 1377 1374 1372 1370 1367 1365 1364 1362 1359 1356 1354 1352 1351 1350 1349 1348 1347 1346 1345 1343 1341 1340 1338 1337 1335 1333 1331 1329 1328 1326 1324 1323 1320 1318 1316 1315 1313 1310 1309 1307 1305 1304 1302 1300 1299 1297 1296 1294 1293 1291 1289 1287 1286 1285 1284 1283 1283 1283 1284 1284 1285 1286 1287 1288 1289 1290 1291 1292
1412 1410 1408 1405 1403 1401 1398 1396 1394 1391 1389 1387 1385 1382 1380 1378 1376 1373 1371 1369 1366 1364 1362 1360 1358 1356 1353 1351 1349 1347 1346 1345 1344 1343 1342 1341 1339 1337 1336 1334 1332 1330 1329 1327 1325 1323 1322 1320 1319 1317 1315 1313 1311 1309 1307 1305 1303 1301 1299 1297 1296 1295 1293 1292 1290 1289 1287 1284 1282 1281 1280 1279 1278 1278 1279 1279 1279 1280 1282 1283 1284 1285 1286 1287 1288
1408 1406 1404 1401 1399 1397 1394 1392 1389 1386 1384 1382 1380 1378 1376 1375 1372 1370 1368 1366 1363 1361 1359 1357 1355 1353 1350 1348 1346 1344 1342 1341 1340 1339 1338 1337 1335 1333 1332 1330 1328 1327 1325 1323 1321 1320 1318 1316 1314 1313 1311 1309 1306 1304 1302 1300 1298 1297 1295 1293 1292 1290 1289 1287 1286 1284 1282 1280 1278 1277 1276 1274 1274 1274 1274 1274 1274 1276 1277 1278 1279 1281 1282 1284 1285
1404 1402 1400 1397 1395 1392 1390 1388 1385 1382 1380 1378 1376 1374 1373 1371 1368 1365 1364 1363 1360 1358 1355 1353 1351 1350 1348 1346 1344 1341 1338 1336 1336 1336 1335 1334 1333 1331 1329 1328 1326 1324 1322 1321 1319 1317 1314 1312 1310 1309 1307 1305 1302 1300 1298 1296 1294 1293 1291 1289 1288 1286 1285 1283 1281 1279 1277 1275 1274 1273 1272 1270 1270 1270 1269 1269 1270 1271 1272 1273 1274 1276 1278 1280 1281
1400 1398 1396 1393 1391 1388 1386 1383 1381 1379 1376 1374 1371 1369 1368 1367 1365 1363 1360 1359 1358 1355 1353 1350 1349 1347 1345 1342 1341 1339 1335 1333 1333 1333 1332 1331 1331 1329 1326 1325 1323 1321 1319 1318 1316 1313 1310 1308 1307 1305 1303 1301 1299 1297 1295 1293 1291 1289 1287 1286 1284 1283 1281 1280 1278 1276 1273 1271 1270 1269 1268 1267 1266 1266 1266 1266 1267 1268 1269 1270 1271 1273 1274 1276 1277
1396 1394 1392 1389 1387 1384 1382 1379 1377 1375 1372 1370 1367 1364 1361 1360 1360 1360 1358 1356 1354 1352 1351 1349 1348 1347 1344 1340 1338 1336 1334 1331 1330 1329 1328 1327 1326 1324 1322 1321 1319 1318 1317 1314 1311 1308 1307 1305 1303 1301 1300 1298 1296 1294 1292 1290 1288 1286 1284 1283 1281 1280 1278 1277 1275 1273 1270 1268 1266 1265 1264 1263 1263 1262 1263 1263 1264 1265 1266 1267 1269 1270 1271 1272 1274
1393 1390 1388 1385 1383 1381 1378 1375 1373 1371 1368 1366 1363 1360 1357 1354 1352 1352 1353 1352 1350 1348 1347 1346 1345 1343 1341 1338 1336 1333 1331 1328 1326 1325 1323 1322 1321 1319 1318 1316 1315 1315 1313 1310 1307 1305 1304 1302 1300 1298 1296 1295 1293 1291 1290 1288 1286 1284 1282 1280 1278 1277 1276 1274 1272 1270 1268 1265 1263 1262 1261 1260 1260 1260 1260 1261 1261 1261 1262 1264 1266 1267 1268 1270 1271
1390 1386 1384 1381 1379 1377 1374 1371 1369 1367 1364 1362 1359 1357 1355 1351 1348 1345 1345 1345 1345 1343 1342 1341 1339 1337 1336 1334 1332 1330 1328 1325 1323 1321 1319 1317 1316 1315 1314 1312 1311 1310 1308 1305 1303 1302 1300 1299 1297 1295 1294 1292 1290 1289 1287 1286 1284 1282 1280 1278 1276 1274 1273 1271 1269 1267 1265 1263 1261 1259 1258 1258 1258 1257 1258 1258 1258 1258 1259 1261 1262 1264 1265 1267 1268
1387 1384 1381 1378 1375 1373 1370 1368 1365 1363 1360 1358 1356 1353 1351 1349 1346 1343 1340 1338 1337 1336 1335 1335 1334 1331 1330 1328 1326 1325 1323 1321 1319 1317 1315 1314 1313 1312 1309 1307 1306 1306 1304 1302 1300 1299 1297 1296 1294 1292 1291 1289 1288 1286 1285 1283 1282 1280 1278 1276 1274 1272 1270 1269 1267 1265 1263 1261 1260 1258 1256 1256 1255 1255 1255 1256 1256 1257 1257 1258 1259 1261 1262 1264 1265
1384 1380 1378 1375 1372 1369 1366 1364 1361 1359 1357 1355 1352 1350 1348 1346 1343 1341 1337 1334 1332 1330 1328 1328 1328 1326 1325 1322 1321 1319 1317 1315 1314 1313 1312 1311 1310 1307 1304 1303 1302 1302 1301 1299 1297 1296 1294 1293 1291 1290 1288 1287 1285 1284 1282 1281 1279 1278 1276 1274 1272 1270 1268 1266 1265 1263 1261 1260 1258 1256 1255 1254 1253 1253 1253 1253 1254 1255 1255 1256 1257 1258 1259 1260 1262
1380 1377 1374 1372 1369 1366 1363 1361 1358 1356 1354 1351 1349 1347 1344 1342 1340 1337 1335 1332 1329 1326 1324 1323 1322 1322 1320 1319 1317 1315 1313 1311 1310 1309 1309 1308 1306 1303 1301 1300 1299 1298 1297 1296 1294 1293 1291 1290 1288 1287 1286 1284 1283 1282 1280 1279 1277 1276 1274 1272 1270 1268 1266 1264 1263 1261 1260 1258 1257 1255 1253 1252 1251 1251 1251 1251 1251 1252 1253 1254 1255 1255 1256 1257 1258
1376 1373 1371 1368 1365 1362 1360 1357 1355 1353 1350 1348 1346 1343 1341 1338 1336 1334 1331 1329 1327 1324 1321 1319 1317 1316 1315 1315 1313 1311 1309 1308 1306 1305 1305 1304 1302 1300 1298 1297 1296 1294 1293 1292 1291 1289 1288 1287 1286 1284 1283 1282 1281 1279 1278 1277 1275 1274 1272 1271 1269 1267 1265 1263 1262 1260 1258 1257 1255 1253 1252 1250 1249 1249 1248 1249 1249 1250 1251 1251 1252 1253 1254 1254 1256
1373 1370 1367 1364 1362 1359 1356 1353 1351 1349 1347 1344 1342 1340 1337 1335 1333 1331 1329 1326 1324 1321 1319 1316 1314 1312 1311 1310 1309 1307 1305 1304 1302 1301 1300 1299 1298 1297 1295 1294 1293 1291 1290 1289 1288 1286 1285 1284 1283 1282 1281 1279 1278 1277 1276 1274 1273 1272 1270 1269 1267 1266 1264 1262 1261 1259 1257 1255 1254 1252 1250 1249 1248 1247 1247 1246 1247 1248 1248 1249 1250 1251 1251 1252 1253
1369 1366 1364 1361 1358 1355 1353 1350 1347 1345 1343 1341 1339 1337 1334 1332 1330 1328 1325 1323 1321 1318 1316 1313 1311 1309 1307 1306 1305 1304 1301 1299 1298 1297 1296 1295 1294 1293 1292 1290 1289 1288 1287 1286 1285 1284 1283 1282 1281 1280 1278 1277 1276 1275 1273 1272 1271 1270 1268 1267 1265 1264 1262 1261 1259 1257 1256 1254 1252 1251 1249 1248 1247 1246 1245 1245 1245 1245 1246 1247 1248 1248 1249 1249 1250
1365 1362 1360 1357 1355 1352 1350 1347 1344 1342 1340 1337 1335 1333 1331 1329 1327 1325 1322 1320 1317 1315 1313 1310 1308 1306 1305 1304 1302 1300 1298 1296 1294 1293 1292 1291 1290 1289 1288 1287 1286 1285 1284 1283 1282 1281 1280 1279 1278 1277 1276 1275 1274 1272 1271 1270 1269 1267 1266 1265 1263 1262 1260 1259 1257 1256 1254 1253 1251 1250 1248 1247 1246 1245 1244 1244 1244 1244 1244 1245 1246 1246 1246 1247 1247
1361 1358 1356 1354 1351 1349 1346 1344 1341 1339 1336 1334 1332 1330 1328 1326 1324 1321 1319 1317 1314 1312 1309 1307 1304 1303 1302 1301 1299 1298 1296 1293 1291 1290 1289 1288 1287 1286 1285 1284 1283 1282 1281 1280 1279 1278 1277 1276 1275 1274 1273 1272 1271 1270 1269 1268 1267 1266 1264 1263 1262 1260 1259 1257 1256 1255 1253 1252 1250 1249 1248 1246 1245 1244 1243 1243 1243 1242 1243 1243 1244 1244 1244 1244 1245
1358 1355 1352 1350 1348 1345 1342 1340 1337 1335 1333 1331 1329 1327 1325 1322 1320 1318 1316 1313 1311 1308 1306 1303 1301 1299 1298 1297 1296 1295 1293 1291 1289 1287 1286 1285 1284 1283 1282 1281 1280 1279 1278 1277 1276 1275 1274 1273 1272 1271 1270 1269 1269 1268 1267 1266 1265 1264 1262 1261 1260 1259 1257 1256 1255 1253 1252 1251 1249 1248 1247 1246 1244 1244 1243 1242 1242 1241 1241 1241 1242 1243 1243 1242 1242
1355 1352 1349 1347 1344 1342 1339 1336 1334 1332 1330 1327 1325 1323 1321 1319 1317 1314 1312 1310 1307 1305 1302 1300 1298 1296 1295 1293 1292 1291 1289 1287 1285 1284 1282 1281 1280 1279 1278 1278 1277 1276 1275 1274 1274 1273 1271 1270 1269 1269 1268 1267 1266 1265 1264 1264 1263 1262 1261 1259 1258 1257 1256 1254 1253 1252 1251 1250 1248 1247 1246 1245 1244 1243 1242 1241 1241 1240 1240 1240 1240 1241 1241 1241 1240
1352 1349 1346 1343 1341 1338 1335 1333 1331 1329 1326 1324 1322 1320 1318 1316 1313 1311 1308 1306 1303 1301 1299 1297 1295 1293 1291 1290 1289 1287 1285 1284 1282 1280 1279 1278 1277 1276 1275 1274 1274 1273 1272 1271 1271 1270 1269 1268 1267 1266 1265 1265 1264 1263 1262 1261 1260 1260 1259 1257 1256 1255 1254 1253 1252 1251 1250 1248 1247 1246 1245 1244 1243 1242 1242 1241 1240 1239 1239 1239 1239 1239 1240 1240 1240
1348 1346 1343 1340 1337 1334 1332 1330 1328 1325 1323 1321 1318 1316 1314 1312 1309 1307 1305 1302 1300 1298 1296 1294 1292 1290 1288 1286 1285 1284 1282 1280 1279 1277 1276 1275 1274 1273 1272 1271 1270 1269 1269 1268 1268 1267 1266 1265 1264 1263 1262 1262 1261 1260 1260 1259 1258 1258 1257 1256 1255 1254 1252 1251 1250 1250 1249 1247 1246 1245 1244 1244 1243 1242 1241 1240 1239 1238 1238 1238 1238 1238 1239 1239 1239
1345 1342 1340 1336 1334 1331 1328 1326 1324 1322 1320 1317 1315 1312 1310 1308 1305 1303 1301 1299 1297 1295 1292 1290 1289 1287 1285 1283 1282 1280 1279 1277 1276 1274 1273 1272 1271 1270 1269 1268 1267 1266 1265 1265 1264 1264 1263 1262 1261 1260 1260 1259 1258 1258 1257 1257 1256 1256 1255 1254 1253 1252 1251 1250 1249 1248 1247 1246 1245 1245 1244 1243 1242 1241 1240 1240 1239 1238 1238 1238 1238 1238 1238 1239 1239
1342 1339 1336 1333 1330 1328 1325 1323 1321 1319 1316 1314 1311 1309 1306 1304 1302 1299 1297 1295 1293 1291 1289 1287 1286 1284 1282 1280 1279 1277 1276 1274 1273 1271 1270 1269 1268 1267 1266 1264 1264 1263 1262 1262 1261 1261 1260 1259 1259 1258 1257 1256 1256 1255 1255 1254 1254 1253 1253 1252 1251 1250 1249 1249 1248 1247 1246 1245 1244 1244 1243 1242 1241 1241 1240 1240 1239 1238 1238 1238 1238 1238 1238 1239 1239
1339 1336 1333 1330 1327 1325 1322 1320 1318 1315 1313 1310 1308 1305 1303 1300 1298 1296 1294 1292 1290 1288 1286 1284 1282 1280 1279 1277 1276 1274 1273 1271 1270 1268 1267 1266 1265 1264 1263 1261 1260 1260 1259 1258 1258 1258 1257 1256 1256 1255 1255 1254 1253 1253 1252 1251 1251 1251 1250 1250 1249 1248 1247 1247 1246 1245 1245 1244 1243 1243 1242 1241 1241 1240 1240 1239 1239 1238 1238 1237 1237 1237 1238 1238 1239
1336 1333 1330 1327 1324 1322 1319 1317 1314 1312 1309 1307 1304 1301 1299 1297 1294 1292 1290 1288 1286 1285 1283 1281 1279 1277 1276 1274 1273 1271 1270 1268 1267 1266 1264 1263 1262 1261 1260 1259 1258 1257 1256 1255 1255 1254 1254 1253 1253 1252 1252 1251 1251 1250 1250 1249 1249 1248 1248 1247 1247 1246 1245 1245 1244 1244 1243 1242 1242 1241 1241 1240 1240 1239 1239 1239 1238 1238 1238 1237 1237 1237 1238 1238 1239
1333 1330 1327 1324 1321 1319 1316 1314 1311 1308 1306 1303 1301 1298 1296 1293 1291 1289 1287 1285 1283 1281 1280 1278 1276 1275 1273 1272 1270 1269 1267 1266 1264 1263 1262 1260 1259 1258 1257 1256 1255 1254 1253 1252 1252 1251 1251 1250 1250 1250 1249 1249 1248 1248 1247 1247 1246 1246 1245 1245 1244 1244 1243 1243 1242 1242 1241 1241 1240 1240 1239 1239 1239 1238 1238 1238 1238 1238 1237 1237 1237 1237 1237 1237 1238
1330 1327 1324 1321 1318 1316 1313 1311 1308 1305 1303 1300 1298 1295 1293 1290 1288 1286 1284 1282 1280 1278 1277 1275 1274 1272 1270 1269 1267 1266 1264 1263 1262 1260 1259 1258 1257 1255 1254 1253 1252 1251 1250 1249 1249 1248 1248 1247 1247 1247 1246 1246 1246 1245 1245 1244 1244 1243 1243 1243 1242 1241 1241 1241 1240 1240 1240 1239 1239 1238 1238 1238 1238 1237 1237 1237 1237 1237 1237 1237 1237 1236 1237 1237 1237